Regional Weather Roundup
Issued by NWS

Home | Current Version | Previous Version | Text Only | Print | Product List | Glossary On
Versions: 1 2 3 4 5 6 7 8 9 10 11 12 13 14 15 16 17 18 19 20 21 22 23 24 25 26 27 28 29 30 31 32 33 34 35 36 37 38 39 40 41 42 43 44 45 46 47 48 49 50
000
ASUS46 KLOX 262312
RWRCA

SOUTHERN CALIFORNIA WEATHER ROUNDUP
NATIONAL WEATHER SERVICE OXNARD CALIFORNIA
300 PM PST WED NOV 26 2014

NOTE: "FAIR" INDICATES FEW OR NO CLOUDS BELOW 12,000 FEET WITH NO
SIGNIFICANT WEATHER AND/OR OBSTRUCTIONS TO VISIBILITY.

  -  STATIONS PRECEEDED BY AN ASTERISK (*) ARE NOT NWS OR FAA
     STATIONS AND ARE NOT SUBJECT TO NWS AND FAA QUALITY CONTROL.

CAZ041-042-087-270000-
LA AND ORANGE COUNTY COASTAL AREAS


CITY           SKY/WX    TMP DP  RH WIND       PRES   REMARKS
L.A. DOWNTOWN  SUNNY     81  24  12 W6        30.13S
L.A. AIRPORT   SUNNY     74  27  17 W9        30.14F
LONG BEACH     SUNNY     85  34  16 W9        30.12F

CITY           SKY/WX    TMP DP  RH WIND       PRES   REMARKS
AVALON           N/A     70 N/A N/A MISG        N/A
FULLERTON      SUNNY     89  13   6 NW5       30.11F
*GETTY CENTER    N/A     82  19   9 SW7         N/A
HAWTHORNE      SUNNY     78  28  16 W7        30.14S
*LOS ALAMITOS  SUNNY     77  48  35 S6        30.12F
*REDONDO BEACH   N/A     74  46  36 CALM      30.13S
SANTA ANA      SUNNY     81  36  19 S8        30.12F
STA MONICA APT SUNNY     76  30  18 SW3       30.14S
TORRANCE       SUNNY     77  23  13 NW12      30.14F

$$

CAZ547-548-048-270000-
LA COUNTY VALLEYS AND INLAND EMPIRE


CITY           SKY/WX    TMP DP  RH WIND       PRES   REMARKS
BURBANK        SUNNY     85  22  10 CALM      30.14F
VAN NUYS       SUNNY     87  14   6 SE3       30.14F

CITY           SKY/WX    TMP DP  RH WIND       PRES   REMARKS
CORONA AIRPORT CLEAR     91  21   8 CALM      30.13F
*CHATSWORTH      N/A     87  32  14 SE3       30.11F
CHINO          SUNNY     87  34  15 NW3       30.14F
*CLAREMONT       N/A     87  19   8 SW3         N/A
MARCH AFB      SUNNY     84  17   8 VRB5      30.18F
*NORTHRIDGE      N/A    N/A N/A N/A E3G12       N/A
ONTARIO        SUNNY     87  18   8 W8        30.15F
*PASADENA        N/A     84  28  13 E2          N/A
POMONA         SUNNY     84  19   9 W6        30.18F
RIVERSIDE      SUNNY     90  16   6 VRB5      30.14F
SAN BERNARDINO SUNNY    N/A N/A N/A CALM      30.16F
*SAN GABRIEL     N/A     87  16   7 CALM      30.08S
*WHITEMAN AP   SUNNY     82  19   9 E6        30.19S
*WOODLAND HILL   N/A     90  19   7 NE2         N/A

$$

CAZ054-055-270000-
LA AND SAN BERNARDINO COUNTY MOUNTAINS


CITY           SKY/WX    TMP DP  RH WIND       PRES   REMARKS
*ACTON           N/A     71   9   9 N15G26      N/A
*BIG BEAR AIRP CLEAR     61   5  11 E6        30.47S
*BIG PINES       N/A     60  12  15 SE2         N/A
*CHILAO          N/A     75  15  10 SW8         N/A
MT WILSON NWS    N/A     75  18  11 MISG        N/A
SANDBERG       SUNNY     72  10   9 NE8       30.38S
*WARM SPRINGS    N/A     69  14  12 N12         N/A

$$

CAZ028-029-059-060-099-270000-
ANTELOPE VALLEY AND SURROUNDING AREAS


CITY           SKY/WX    TMP DP  RH WIND       PRES   REMARKS
LANCASTER      SUNNY     70   9   9 CALM      30.30F
PALMDALE       SUNNY     70  11  10 NE5       30.31S

CITY           SKY/WX    TMP DP  RH WIND       PRES   REMARKS
29 PALMS       SUNNY     77  17  10 CALM      30.32F
BARSTOW/DAGGET SUNNY     73   6   7 N3        30.28F
BISHOP         SUNNY     72  19  13 S8        30.32F
CHINA LAKE     SUNNY     70  12  10 CALM      30.29F
EDWARDS AFB    SUNNY     69   8   9 NE1       30.28F
MOJAVE         FAIR      72  14  11 CALM      30.32S
NEEDLES        SUNNY     77  14   9 N12       30.21F
VICTORVILLE    SUNNY     72  10   9 N5        30.31S

$$

CAZ039-040-270000-
VENTURA AND SANTA BARBARA COUNTY COAST


CITY           SKY/WX    TMP DP  RH WIND       PRES   REMARKS
CAMARILLO      SUNNY     78  39  24 W7        30.14S
NWS OXNARD       N/A     74  45  35 CALM      30.14S
OXNARD AIRPORT SUNNY     73  47  39 W8        30.14F
*POINT MUGU    SUNNY     73  47  39 W7        30.15S
SBA APT/GOLETA SUNNY     76  28  17 W9        30.13F
*SANTA BARBARA   N/A     82  28  14 CALM      30.21F
*VENTURA         N/A     78  45  31 SW8       30.17S

$$

CAZ044-045-270000-
VENTURA COUNTY VALLEYS


CITY           SKY/WX    TMP DP  RH WIND       PRES   REMARKS
*SIMI VALLEY     N/A     87  24  10 N2        30.07F
*OJAI            N/A     85  35  17 CALM      30.09F
*FILLMORE        N/A     89  45  21 CALM      30.02S

$$

CAZ053-270000-
VENTURA COUNTY MOUNTAINS


CITY           SKY/WX    TMP DP  RH WIND       PRES   REMARKS
*LOCKWOOD VLY    N/A     79  23  12 MISG        N/A
*ROSE VALLEY     N/A     82  25  12 MISG        N/A

$$

CAZ034-035-036-270000-
CENTRAL COAST AND SANTA YNEZ VALLEY


CITY           SKY/WX    TMP DP  RH WIND       PRES   REMARKS
SAN LUIS OBISP SUNNY     83  30  14 NW6       30.16S
SANTA MARIA    SUNNY     81  38  21 W7        30.17S

CITY           SKY/WX    TMP DP  RH WIND       PRES   REMARKS
*CAL POLY SLO    N/A     86  36  16 SW3G12      N/A
*LOMPOC        SUNNY     79  28  15 W9        30.17S
*PISMO BEACH     N/A     67  54  64 SW2       30.17S
*SANTA YNEZ    FAIR      86  21   9 W5        30.16S

$$

CAZ037-038-051-270000-
SAN LUIS OBISPO COUNTY INTERIOR AND CUYAMA VALLEY


CITY           SKY/WX    TMP DP  RH WIND       PRES   REMARKS
*CUYAMA          N/A     83  23  11 W3        30.18S
PASO ROBLES    SUNNY     77  34  21 N3        30.20F

$$

CAZ032-033-061-270000-
SOUTHERN DESERTS


CITY           SKY/WX    TMP DP  RH WIND       PRES   REMARKS
BLYTHE         SUNNY     75  13   9 CALM      30.19F
IMPERIAL       SUNNY     77  27  15 W5        30.17F
PALM SPRINGS   SUNNY     78  15   9 SE5       30.20F
THERMAL        SUNNY     79  19  10 VRB3      30.16F

$$

ELSEWHERE ACROSS THE WESTERN UNITED STATES AND MEXICO


CITY           SKY/WX    TMP DP  RH WIND       PRES   REMARKS
DENVER, CO     PTCLDY    35  25  66 E16       30.18R WCI  25
GRAND CANYON,  SUNNY     60  16  18 VRB5      30.43S
HONOLULU, HI   MOSUNNY   82  61  47 NE14G22   30.02F
KAHULUI, MAUI  MOSUNNY   79  63  57 NE16      30.04F
LAKE TAHOE, CA SUNNY     64  30  27 VRB5      30.41S
LAS VEGAS, NV  SUNNY     68  15  13 S3        30.26F
MAMMOTH LAKES, FAIR      64  10  12 SE7       30.46S
MEXICO CITY, M SUNNY     68   3   8 NE18      30.32S
PHOENIX, AZ    SUNNY     72  13  10 W5        30.16F
PORTLAND, OR   CLOUDY    60  53  77 CALM      30.10S
RENO, NV       CLOUDY    67  26  21 VRB3      30.31F
SALT LAKE CITY PTCLDY    59  27  29 SE3       30.35S
SAN DIEGO, CA  SUNNY     77  36  22 NW5       30.13S
SAN FRANCISCO, MOSUNNY   67  52  58 CALM      30.21S
SAN JOSE, CA   MOSUNNY   70  41  34 NW3       30.20S
SEATTLE, WA    CLOUDY    57  52  83 SW5       30.05S
TIJUANA, MEX   SUNNY     82  21  10 W6        30.15S

$$

STATION/POSITION TIME  TEMP    WIND        PRES    VSBY  WAVE
                       AIR SEA DIR/SP/G                  HT/PER
                 (UTC) (F)     (DEG/KT/KT) (MB)    (MI)  (FT/S)
POINT ARGUELLO B NOT AVBL
WEST SANTA BARBA 2300   65 64  300/  4/  6 1020.4F         5/12
POINT CONCEPTION NOT AVBL
EAST SANTA BARBA 2200   67 67  290/  4/  6 1021.2F
SANTA MONICA BAY 2300   67 67  300/  6/  8 1020.9F         2/13


USA.gov is the U.S. government's official web portal to all federal, state and local government web resources and services.